CMB859 Details

Departure: Ambouli International Airport (HDAM)
Arrival: Bahrain International Airport (OBBI) at N/A
Route: TORBA2E TORBA B535 KRA UM651 NADKI M318 DEGPA UT100 KUTNA UL564 BAT UL564 DOH VEDED P699 SOGAT
Notes: USTRANSCOM CONTRACT FLIGHT


Current Weather Information
HDAM 230600Z 10004KT CAVOK 31/25 Q1013
OBBI 230830Z 18004KT 110V270 CAVOK 36/20 Q1011 NOSIG